| time (UTC) | temp F | wind direction | speed MPH | gust MPH | rain 1hr in | rain 24hr in | rain mn in | humidity % | barometer mb |
| 20260507090334 | 52 | 345 | 5.0 | 11.0 | 0.00 | 0.00 | 0.00 | 70 | 1019.2 |
| 20260507085316 | 52 | 345 | 2.0 | 8.0 | 0.00 | 0.00 | 0.00 | 70 | 1019.3 |
| 20260507084319 | 52 | 345 | 5.0 | 12.0 | 0.00 | 0.00 | 0.00 | 71 | 1019.3 |
| 20260507083326 | 52 | 345 | 5.0 | 10.0 | 0.00 | 0.00 | 0.00 | 71 | 1019.3 |
| 20260507082320 | 52 | 345 | 4.0 | 11.0 | 0.00 | 0.00 | 0.00 | 71 | 1019.4 |
| 20260507081323 | 52 | 345 | 4.0 | 11.0 | 0.00 | 0.00 | 0.00 | 71 | 1019.4 |
| 20260507080318 | 52 | 345 | 4.0 | 10.0 | 0.00 | 0.00 | 0.00 | 71 | 1019.4 |
| 20260507075323 | 52 | 345 | 4.0 | 12.0 | 0.00 | 0.00 | 0.00 | 71 | 1019.4 |
| 20260507074331 | 52 | 345 | 6.0 | 13.0 | 0.00 | 0.00 | 0.00 | 71 | 1019.5 |
| 20260507073319 | 52 | 345 | 5.0 | 10.0 | 0.00 | 0.00 | 0.00 | 71 | 1019.4 |
| 20260507072321 | 52 | 345 | 8.0 | 11.0 | 0.00 | 0.00 | 0.00 | 71 | 1019.4 |
| 20260507071329 | 52 | 345 | 4.0 | 10.0 | 0.00 | 0.00 | 0.00 | 71 | 1019.4 |
| 20260507070311 | 52 | 345 | 7.0 | 11.0 | 0.00 | 0.00 | 0.00 | 71 | 1019.3 |
| 20260507065316 | 52 | 345 | 5.0 | 13.0 | 0.00 | 0.00 | 0.00 | 71 | 1019.4 |
| 20260507064325 | 52 | 345 | 5.0 | 10.0 | 0.00 | 0.00 | 0.00 | 71 | 1019.3 |
| 20260507063330 | 52 | 345 | 5.0 | 12.0 | 0.00 | 0.00 | 0.00 | 71 | 1019.3 |
| 20260507062321 | 52 | 345 | 4.0 | 9.0 | 0.00 | 0.00 | 0.00 | 71 | 1019.1 |
| 20260507061328 | 52 | 345 | 5.0 | 14.0 | 0.00 | 0.00 | 0.00 | 71 | 1019.0 |
| 20260507060331 | 52 | 345 | 9.0 | 17.0 | 0.00 | 0.00 | 0.00 | 71 | 1019.0 |
| 20260507055323 | 52 | 345 | 8.0 | 15.0 | 0.00 | 0.00 | 0.00 | 71 | 1019.1 |
| 20260507054325 | 52 | 345 | 5.0 | 13.0 | 0.00 | 0.00 | 0.00 | 72 | 1019.1 |
| 20260507053313 | 52 | 345 | 8.0 | 17.0 | 0.00 | 0.00 | 0.00 | 71 | 1018.9 |
| 20260507052327 | 53 | 345 | 10.0 | 21.0 | 0.00 | 0.00 | 0.00 | 72 | 1018.9 |
| 20260507051330 | 53 | 345 | 9.0 | 20.0 | 0.00 | 0.00 | 0.00 | 72 | 1018.9 |
| 20260507050339 | 53 | 345 | 11.0 | 21.0 | 0.00 | 0.00 | 0.00 | 72 | 1018.9 |
| 20260507045325 | 53 | 345 | 13.0 | 24.0 | 0.00 | 0.00 | 0.00 | 72 | 1018.8 |
| 20260507044328 | 53 | 345 | 13.0 | 20.0 | 0.00 | 0.00 | 0.00 | 72 | 1018.9 |
| 20260507043317 | 53 | 345 | 9.0 | 18.0 | 0.00 | 0.00 | 0.00 | 72 | 1018.9 |
| 20260507042323 | 53 | 345 | 10.0 | 17.0 | 0.00 | 0.00 | 0.00 | 73 | 1018.9 |
| 20260507041332 | 53 | 345 | 10.0 | 20.0 | 0.00 | 0.00 | 0.00 | 73 | 1018.9 |
| 20260507040340 | 54 | 345 | 11.0 | 18.0 | 0.00 | 0.00 | 0.00 | 73 | 1018.8 |
| 20260507035327 | 54 | 345 | 9.0 | 15.0 | 0.00 | 0.00 | 0.00 | 73 | 1018.8 |
| 20260507034331 | 54 | 345 | 8.0 | 16.0 | 0.00 | 0.00 | 0.00 | 74 | 1018.9 |
| 20260507033329 | 54 | 345 | 7.0 | 16.0 | 0.00 | 0.00 | 0.00 | 74 | 1018.8 |
| 20260507032345 | 54 | 345 | 5.0 | 19.0 | 0.00 | 0.00 | 0.00 | 74 | 1018.9 |
| 20260507031317 | 54 | 345 | 10.0 | 20.0 | 0.00 | 0.00 | 0.00 | 75 | 1018.8 |
| 20260507030346 | 54 | 345 | 9.0 | 15.0 | 0.00 | 0.00 | 0.00 | 76 | 1018.8 |
| 20260507025333 | 54 | 345 | 10.0 | 19.0 | 0.00 | 0.00 | 0.00 | 76 | 1018.8 |
| 20260507024316 | 54 | 345 | 9.0 | 18.0 | 0.00 | 0.00 | 0.00 | 77 | 1018.9 |
| 20260507023324 | 55 | 345 | 8.0 | 17.0 | 0.00 | 0.00 | 0.00 | 77 | 1018.9 |
| 20260507022329 | 55 | 345 | 10.0 | 16.0 | 0.00 | 0.00 | 0.00 | 77 | 1018.7 |
| 20260507021341 | 55 | 345 | 10.0 | 17.0 | 0.00 | 0.00 | 0.00 | 77 | 1018.8 |
| 20260507020315 | 55 | 345 | 14.0 | 18.0 | 0.00 | 0.00 | 0.00 | 78 | 1018.6 |
| 20260507015325 | 56 | 260 | 14.0 | 20.0 | 0.00 | 0.00 | 0.00 | 78 | 1018.7 |
| 20260507014332 | 56 | 238 | 13.0 | 21.0 | 0.00 | 0.00 | 0.00 | 79 | 1018.7 |
| 20260507013401 | 57 | 249 | 13.0 | 21.0 | 0.00 | 0.00 | 0.00 | 78 | 1018.7 |
| 20260507012333 | 57 | 245 | 13.0 | 20.0 | 0.00 | 0.00 | 0.00 | 78 | 1018.6 |
| 20260507011317 | 58 | 254 | 11.0 | 21.0 | 0.00 | 0.00 | 0.00 | 78 | 1018.7 |
| 20260507010340 | 59 | 248 | 11.0 | 20.0 | 0.00 | 0.00 | 0.00 | 77 | 1018.7 |
| 20260507005329 | 59 | 284 | 13.0 | 22.0 | 0.00 | 0.00 | 0.00 | 76 | 1018.7 |
| 20260507004318 | 59 | 256 | 13.0 | 21.0 | 0.00 | 0.00 | 0.00 | 76 | 1018.4 |
| 20260507003323 | 60 | 251 | 14.0 | 22.0 | 0.00 | 0.00 | 0.00 | 75 | 1018.5 |
| 20260507002315 | 61 | 252 | 15.0 | 21.0 | 0.00 | 0.00 | 0.00 | 73 | 1018.5 |
| 20260507001323 | 62 | 248 | 14.0 | 21.0 | 0.00 | 0.00 | 0.00 | 73 | 1018.5 |
| 20260507000328 | 62 | 254 | 12.0 | 20.0 | 0.00 | 0.00 | 0.00 | 73 | 1018.6 |
| 20260506235338 | 62 | 254 | 15.0 | 24.0 | 0.00 | 0.00 | 0.00 | 72 | 1018.6 |
| 20260506234320 | 63 | 260 | 10.0 | 19.0 | 0.00 | 0.00 | 0.00 | 71 | 1018.5 |
| 20260506233328 | 64 | 255 | 9.0 | 20.0 | 0.00 | 0.00 | 0.00 | 72 | 1018.5 |
| 20260506232332 | 64 | 258 | 11.0 | 20.0 | 0.00 | 0.00 | 0.00 | 71 | 1018.5 |
| 20260506231316 | 65 | 245 | 11.0 | 21.0 | 0.00 | 0.00 | 0.00 | 69 | 1018.5 |
| 20260506230323 | 65 | 266 | 13.0 | 20.0 | 0.00 | 0.00 | 0.00 | 71 | 1018.6 |
| 20260506225332 | 66 | 273 | 12.0 | 17.0 | 0.00 | 0.00 | 0.00 | 70 | 1018.6 |
| 20260506224323 | 67 | 247 | 12.0 | 20.0 | 0.00 | 0.00 | 0.00 | 69 | 1018.8 |
| 20260506223329 | 66 | 237 | 12.0 | 17.0 | 0.00 | 0.00 | 0.00 | 70 | 1018.8 |
| 20260506222334 | 66 | 251 | 11.0 | 20.0 | 0.00 | 0.00 | 0.00 | 71 | 1018.9 |
| 20260506221321 | 67 | 252 | 12.0 | 18.0 | 0.00 | 0.00 | 0.00 | 69 | 1019.0 |
| 20260506220326 | 68 | 306 | 8.0 | 15.0 | 0.00 | 0.00 | 0.00 | 70 | 1019.2 |
| 20260506215318 | 67 | 283 | 12.0 | 19.0 | 0.00 | 0.00 | 0.00 | 69 | 1019.2 |
| 20260506214324 | 69 | 260 | 12.0 | 16.0 | 0.00 | 0.00 | 0.00 | 68 | 1019.3 |
| 20260506213330 | 69 | 267 | 9.0 | 17.0 | 0.00 | 0.00 | 0.00 | 68 | 1019.3 |
| 20260506212338 | 70 | 271 | 8.0 | 17.0 | 0.00 | 0.00 | 0.00 | 68 | 1019.3 |
| 20260506211319 | 70 | 240 | 8.0 | 14.0 | 0.00 | 0.00 | 0.00 | 66 | 1019.3 |
| 20260506210317 | 70 | 258 | 9.0 | 14.0 | 0.00 | 0.00 | 0.00 | 66 | 1019.3 |
| 20260506205335 | 70 | 262 | 7.0 | 13.0 | 0.00 | 0.00 | 0.00 | 67 | 1019.4 |
| 20260506204321 | 69 | 256 | 8.0 | 11.0 | 0.00 | 0.00 | 0.00 | 66 | 1019.4 |
| 20260506203345 | 69 | 255 | 7.0 | 12.0 | 0.00 | 0.00 | 0.00 | 67 | 1019.5 |
| 20260506202333 | 68 | 264 | 6.0 | 12.0 | 0.00 | 0.00 | 0.00 | 68 | 1019.7 |
| 20260506201343 | 70 | 264 | 5.0 | 10.0 | 0.00 | 0.00 | 0.00 | 65 | 1019.8 |
| 20260506200329 | 71 | 273 | 0.0 | 6.0 | 0.00 | 0.00 | 0.00 | 62 | 1019.8 |
| 20260506195334 | 69 | 154 | 3.0 | 7.0 | 0.00 | 0.00 | 0.00 | 62 | 1019.9 |
| 20260506194343 | 69 | 81 | 2.0 | 4.0 | 0.00 | 0.00 | 0.00 | 64 | 1020.0 |
| 20260506193320 | 68 | 318 | 2.0 | 5.0 | 0.00 | 0.00 | 0.00 | 64 | 1020.2 |
| 20260506192330 | 69 | 350 | 2.0 | 5.0 | 0.00 | 0.00 | 0.00 | 63 | 1020.2 |
| 20260506191321 | 69 | 96 | 1.0 | 6.0 | 0.00 | 0.00 | 0.00 | 63 | 1020.3 |
| 20260506190328 | 70 | 97 | 4.0 | 7.0 | 0.00 | 0.00 | 0.00 | 62 | 1020.4 |
| 20260506185334 | 69 | 83 | 1.0 | 4.0 | 0.00 | 0.00 | 0.00 | 65 | 1020.3 |
| 20260506184334 | 68 | 260 | 2.0 | 8.0 | 0.00 | 0.00 | 0.00 | 65 | 1020.5 |
| 20260506183315 | 67 | 358 | 2.0 | 6.0 | 0.00 | 0.00 | 0.00 | 65 | 1020.6 |
| 20260506182326 | 67 | 209 | 3.0 | 7.0 | 0.00 | 0.00 | 0.00 | 65 | 1020.6 |
| 20260506181401 | 67 | 145 | 1.0 | 5.0 | 0.00 | 0.00 | 0.00 | 68 | 1020.6 |
| 20260506180321 | 64 | 155 | 1.0 | 4.0 | 0.00 | 0.00 | 0.00 | 70 | 1020.5 |
| 20260506175332 | 65 | 257 | 3.0 | 7.0 | 0.00 | 0.00 | 0.00 | 68 | 1020.5 |
| 20260506174345 | 65 | 221 | 1.0 | 5.0 | 0.00 | 0.00 | 0.00 | 69 | 1020.5 |
| 20260506173322 | 64 | 249 | 4.0 | 8.0 | 0.00 | 0.00 | 0.00 | 68 | 1020.6 |
| 20260506172335 | 64 | 230 | 2.0 | 6.0 | 0.00 | 0.00 | 0.00 | 69 | 1020.6 |
| 20260506171333 | 63 | 235 | 3.0 | 7.0 | 0.00 | 0.00 | 0.00 | 69 | 1020.5 |
| 20260506170342 | 62 | 248 | 4.0 | 7.0 | 0.00 | 0.00 | 0.00 | 70 | 1020.7 |
| 20260506165329 | 62 | 255 | 4.0 | 8.0 | 0.00 | 0.00 | 0.00 | 71 | 1020.7 |
| 20260506164333 | 61 | 257 | 4.0 | 8.0 | 0.00 | 0.00 | 0.00 | 71 | 1020.7 |
| 20260506163336 | 60 | 221 | 4.0 | 7.0 | 0.00 | 0.00 | 0.00 | 71 | 1020.7 |
| 20260506162333 | 60 | 251 | 5.0 | 9.0 | 0.00 | 0.00 | 0.00 | 71 | 1020.7 |
| 20260506161333 | 59 | 220 | 4.0 | 8.0 | 0.00 | 0.00 | 0.00 | 72 | 1020.7 |
| 20260506160315 | 58 | 254 | 3.0 | 9.0 | 0.00 | 0.00 | 0.00 | 71 | 1020.7 |
| 20260506155323 | 58 | 249 | 4.0 | 8.0 | 0.00 | 0.00 | 0.00 | 71 | 1020.8 |
| 20260506154348 | 57 | 252 | 3.0 | 8.0 | 0.00 | 0.00 | 0.00 | 71 | 1020.7 |
| 20260506153314 | 57 | 258 | 5.0 | 9.0 | 0.00 | 0.00 | 0.00 | 71 | 1020.6 |
| 20260506152323 | 57 | 259 | 6.0 | 10.0 | 0.00 | 0.00 | 0.00 | 71 | 1020.7 |
| 20260506151326 | 56 | 258 | 4.0 | 11.0 | 0.00 | 0.00 | 0.00 | 71 | 1020.6 |
| 20260506150354 | 56 | 273 | 3.0 | 8.0 | 0.00 | 0.00 | 0.00 | 71 | 1020.6 |
| 20260506145340 | 55 | 261 | 5.0 | 9.0 | 0.00 | 0.00 | 0.00 | 71 | 1020.6 |
| 20260506144325 | 55 | 244 | 5.0 | 8.0 | 0.00 | 0.00 | 0.00 | 72 | 1020.6 |
| 20260506142333 | 54 | 267 | 4.0 | 8.0 | 0.00 | 0.00 | 0.00 | 73 | 1020.4 |
| 20260506141405 | 54 | 254 | 3.0 | 9.0 | 0.00 | 0.00 | 0.00 | 74 | 1020.3 |
| 20260506140318 | 54 | 291 | 1.0 | 8.0 | 0.00 | 0.00 | 0.00 | 74 | 1020.3 |
| 20260506135323 | 54 | 266 | 2.0 | 5.0 | 0.00 | 0.00 | 0.00 | 74 | 1020.2 |
| 20260506134338 | 54 | 293 | 3.0 | 8.0 | 0.00 | 0.00 | 0.00 | 74 | 1020.1 |
| 20260506133316 | 54 | 274 | 3.0 | 8.0 | 0.00 | 0.00 | 0.00 | 74 | 1020.1 |
| 20260506132317 | 54 | 273 | 3.0 | 8.0 | 0.00 | 0.00 | 0.00 | 74 | 1020.1 |
| 20260506131330 | 54 | 301 | 3.0 | 5.0 | 0.00 | 0.00 | 0.00 | 74 | 1020.1 |
| 20260506130358 | 54 | 273 | 1.0 | 6.0 | 0.00 | 0.00 | 0.00 | 74 | 1020.0 |
| 20260506125326 | 54 | 319 | 1.0 | 5.0 | 0.00 | 0.00 | 0.00 | 75 | 1019.9 |
| 20260506124328 | 54 | 264 | 2.0 | 6.0 | 0.00 | 0.00 | 0.00 | 75 | 1019.9 |
| 20260506123327 | 54 | 266 | 2.0 | 5.0 | 0.00 | 0.00 | 0.00 | 75 | 1019.8 |
| 20260506122329 | 54 | 273 | 1.0 | 6.0 | 0.00 | 0.00 | 0.00 | 75 | 1019.8 |
| 20260506121350 | 54 | 302 | 0.0 | 3.0 | 0.00 | 0.00 | 0.00 | 75 | 1019.7 |
| 20260506120316 | 54 | 283 | 0.0 | 2.0 | 0.00 | 0.00 | 0.00 | 75 | 1019.7 |
| 20260506115325 | 54 | 277 | 1.0 | 3.0 | 0.00 | 0.00 | 0.00 | 75 | 1019.6 |
| 20260506114333 | 54 | 267 | 2.0 | 5.0 | 0.00 | 0.00 | 0.00 | 75 | 1019.5 |
| 20260506113336 | 54 | 306 | 2.0 | 7.0 | 0.00 | 0.00 | 0.00 | 75 | 1019.5 |
| 20260506112345 | 54 | 299 | 1.0 | 4.0 | 0.00 | 0.00 | 0.00 | 75 | 1019.5 |
| 20260506111331 | 54 | 294 | 1.0 | 5.0 | 0.00 | 0.00 | 0.00 | 75 | 1019.4 |
| 20260506110316 | 54 | 257 | 3.0 | 8.0 | 0.00 | 0.00 | 0.00 | 75 | 1019.3 |
| 20260506105327 | 54 | 283 | 1.0 | 6.0 | 0.00 | 0.00 | 0.00 | 75 | 1019.3 |
| 20260506104340 | 54 | 273 | 5.0 | 9.0 | 0.00 | 0.00 | 0.00 | 75 | 1019.2 |
| 20260506103315 | 54 | 256 | 4.0 | 8.0 | 0.00 | 0.00 | 0.00 | 75 | 1019.1 |
| 20260506102326 | 54 | 248 | 3.0 | 9.0 | 0.00 | 0.00 | 0.00 | 75 | 1019.1 |
| 20260506101340 | 54 | 248 | 3.0 | 9.0 | 0.00 | 0.00 | 0.00 | 75 | 1019.1 |
| 20260506100317 | 54 | 248 | 3.0 | 8.0 | 0.00 | 0.00 | 0.00 | 75 | 1019.0 |
| 20260506095324 | 54 | 242 | 2.0 | 7.0 | 0.00 | 0.00 | 0.00 | 75 | 1019.1 |
| 20260506094340 | 54 | 263 | 2.0 | 5.0 | 0.00 | 0.01 | 0.00 | 75 | 1019.1 |
| 20260506093316 | 54 | 295 | 2.0 | 6.0 | 0.00 | 0.01 | 0.00 | 75 | 1019.1 |
| 20260506092322 | 54 | 295 | 1.0 | 6.0 | 0.00 | 0.01 | 0.00 | 75 | 1019.1 |
| 20260506091346 | 54 | 298 | 2.0 | 8.0 | 0.00 | 0.01 | 0.00 | 75 | 1019.2 |